Flag for Paraguay Weather past 2 weeks in Asuncion, Paraguay

Now
82 °F

Clear.


Feels Like: 83 °F
Forecast: 72 / 94 °F
Wind: 9 mph from East

Location: Asuncion / Aeropuerto

Current Time: Aug 22, 2014 at 10:29:49 PM

Latest Report: Aug 22, 2014 at 10:00 PM


Visibility: 10 mi

Pressure: 29.80 "Hg

Humidity: 48%

Dew point: 61 °F

Location of AsuncionLocation

Historic Weather in Asuncion — Graph

°F

Asuncion temperature yesterday

Maximum temperature yesterday: 90 °F (at 3:00 PM)
Minimum temperature yesterday: 66 °F (at 3:00 AM)
Average temperature yesterday: 75 °F

Past Weeks' High & Low Weather Summary

 TemperatureHumidityPressure
High91 °F (Aug 22, 2:00 PM)100% (Aug 12, 4:00 AM)30.42 "Hg (Aug 12, 4:00 AM)
Low39 °F (Aug 14, 4:00 AM)31% (Aug 14, 3:00 PM)29.77 "Hg (Aug 22, 4:00 PM)
Average69 °F69%30.06 "Hg
* Reported Aug 7 9:00 PM — Aug 22 9:00 PM, Asuncion, Weather by CustomWeather, © 2014

Note: Actual official high and low records may vary slightly from our data, if they occured in-between our weather recording intervals... More about our weather records

Advertising

Asuncion weather history for previous 24 hours

 ConditionsComfort  
Time TempWeatherWind HumidityBarometerVisibility
9:00 PM
Aug 22
79 °FClear.3 mph61%29.80 "Hg6 mi
8:00 PM79 °FClear.No wind70%29.80 "Hg5 mi
7:00 PM79 °FClear.No wind65%29.77 "Hg4 mi
6:00 PM82 °FClear.3 mph55%29.77 "Hg5 mi
5:00 PM88 °FClear.5 mph46%29.77 "Hg10 mi
4:00 PM91 °FPassing clouds.7 mph41%29.77 "HgN/A
3:00 PM91 °FPassing clouds.8 mph41%29.80 "HgN/A
2:00 PM91 °FPassing clouds.7 mph41%29.83 "HgN/A
1:00 PM90 °FPassing clouds.7 mph41%29.86 "HgN/A
12:00 PM88 °FPartly sunny.12 mph43%29.89 "HgN/A
11:00 AM86 °FPartly sunny.12 mph43%29.89 "HgN/A
10:00 AM86 °FPassing clouds.7 mph43%29.92 "HgN/A
9:30 AM84 °FPassing clouds.8 mph43%29.92 "HgN/A
9:00 AM82 °FPassing clouds.7 mph45%29.92 "HgN/A
8:30 AM81 °FPassing clouds.6 mph48%29.92 "HgN/A
8:00 AM77 °FSunny.5 mph57%29.92 "Hg10 mi
7:30 AM75 °FSunny.2 mph57%29.89 "Hg10 mi
7:00 AM66 °FSunny.No wind78%29.89 "Hg10 mi
6:00 AM64 °FPassing clouds.No wind83%29.86 "HgN/A
5:00 AM64 °FClear.No wind83%29.86 "Hg10 mi
4:00 AM66 °FClear.No wind78%29.86 "Hg10 mi
3:00 AM64 °FClear.3 mph83%29.86 "Hg10 mi
2:00 AM66 °FClear.No wind78%29.89 "Hg10 mi
1:00 AM66 °FClear.3 mph73%29.89 "Hg10 mi
12:00 AM66 °FClear.No wind78%29.92 "Hg10 mi
11:00 PM
Aug 21
66 °FClear.No wind78%29.92 "Hg10 mi
10:00 PM68 °FClear.No wind78%29.92 "Hg5 mi
Weather by CustomWeather, © 2014

See weather overviewHow to use our weather pages